Location: Deurze
(52.9838°N, 6.6090°E)
Time: 18:52:24
(UTC+00:00)

Cosmos 2344 - Pass Details

Date: 11 March 2026
Orbit: 1194 x 3048 km, 63.3° (Epoch: 20 April)

Event Time Altitude Azimuth Distance (km) Brightness Sun altitude
Rises 22:40:55 0° 313° (NW) 4,180 7.0 -38.8°
Reaches altitude 10° 22:43:26 10° 311° (NW) 3,290 6.3 -38.9°
Enters shadow 22:49:14 53° 282° (WNW) 1,730 4.2 -39.2°
